Springfield, VT

2:42 AM EDT on August 17, 2017 (GMT -0400)
Hartness State

Weather History for KVSF - May, 2014

Change the Weather History Date:

Saturday, May 10, 2014

  Actual Average Record
Temperature  
Mean Temperature 67 °F 54 °F  
Max Temperature 80 °F 66 °F 87 °F (2015)
Min Temperature 54 °F 41 °F 29 °F (2016)
Degree Days  
Heating Degree Days 0 12  
Month to date heating degree days 130  
Since 1 July heating degree days 7236  
Cooling Degree Days 2 0  
Month to date cooling degree days 2 0  
Year to date cooling degree days 2 2  
Growing Degree Days 16 (Base 50)    
Moisture  
Dew Point 53 °F    
Average Humidity 66    
Maximum Humidity 100    
Minimum Humidity 31    
Precipitation  
Precipitation 0.04 in 0.10 in 1.61 in (2000)
Month to date precipitation 0.42 0.99  
Year to date precipitation 9.83 13.52  
Sea Level Pressure  
Sea Level Pressure 29.85 in    
Wind  
Wind Speed 7 mph (WSW)    
Max Wind Speed 21 mph    
Max Gust Speed 30 mph    
Visibility 8 miles    
Events Rain    
T = Trace of Precipitation, MM = Missing Value Source: NWS Daily Summary

Daily Weather History Graph

Daily Weather History Graph

Search for Another Location

Airport or City:

Trip Planner

Search our weather history database for the weather conditions in past years. The results will help you decide how hot, cold, wet, or windy it might be!

Date:

Astronomy

May. 10, 2014 Rise Set
Actual Time 5:31 AM EDT 8:02 PM EDT
Civil Twilight 4:59 AM EDT 8:34 PM EDT
Nautical Twilight 4:19 AM EDT 9:14 PM EDT
Astronomical Twilight 3:33 AM EDT 10:00 PM EDT
Moon 3:48 PM EDT (5/10) 3:11 AM EDT (5/10)
Length of Visible Light 15h 35m
Length of Day
14h 30m
Waxing Gibbous, 82% of the Moon is Illuminated
May 10
Waxing Gibbous
May 14
Full
May 21
Last Quarter
May 28
New
Jun 5
First Quarter

Hourly Weather History & Observations

Time (EDT) Temp. Dew Point Humidity Pressure Visibility Wind Dir Wind Speed Gust Speed Precip Events Conditions
12:09 AM 53.1 °F 53.1 °F 100% 30.03 in 3.0 mi Calm Calm - N/A   Overcast
12:54 AM 54.0 °F 53.1 °F 97% 30.01 in 6.0 mi Calm Calm - N/A   Overcast
1:31 AM 55.0 °F 54.0 °F 96% 29.99 in 6.0 mi Calm Calm - N/A   Overcast
1:54 AM 54.0 °F 54.0 °F 100% 29.98 in 3.0 mi Calm Calm - N/A   Overcast
2:25 AM 55.0 °F 54.0 °F 96% 29.96 in 5.0 mi Calm Calm - N/A   Overcast
2:36 AM 55.0 °F 54.0 °F 96% 29.96 in 4.0 mi Calm Calm - N/A   Overcast
2:54 AM 55.0 °F 54.0 °F 96% 29.96 in 4.0 mi Calm Calm - N/A   Overcast
3:47 AM 55.0 °F 55.0 °F 100% 29.92 in 5.0 mi SSE 3.5 mph - N/A   Overcast
3:54 AM 55.9 °F 55.0 °F 97% 29.92 in 7.0 mi South 3.5 mph - N/A   Overcast
4:04 AM 55.9 °F 55.0 °F 97% 29.91 in 10.0 mi SSE 5.8 mph - N/A   Overcast
4:54 AM 55.9 °F 55.9 °F 100% 29.89 in 7.0 mi South 3.5 mph - 0.00 in   Overcast
5:42 AM 55.9 °F 55.9 °F 100% 29.88 in 6.0 mi Calm Calm - 0.01 in   Overcast
5:54 AM 55.9 °F 55.0 °F 97% 29.88 in 7.0 mi Calm Calm - 0.01 in Rain Light Rain
6:05 AM 55.9 °F 55.9 °F 100% 29.88 in 9.0 mi Calm Calm - 0.00 in   Overcast
6:54 AM 55.9 °F 55.9 °F 100% 29.87 in 10.0 mi Calm Calm - 0.00 in   Overcast
7:27 AM 57.0 °F 55.9 °F 96% 29.84 in 10.0 mi Calm Calm - 0.00 in Rain Light Rain
7:54 AM 55.9 °F 55.9 °F 100% 29.86 in 9.0 mi West 3.5 mph - 0.00 in Rain Light Rain
8:35 AM 57.0 °F 57.0 °F 100% 29.85 in 9.0 mi Calm Calm - 0.00 in   Overcast
8:52 AM 57.2 °F 57.2 °F 100% 29.85 in 8.0 mi Calm Calm - 0.00 in   Overcast
8:54 AM 57.9 °F 57.0 °F 97% 29.86 in 8.0 mi Calm Calm - 0.00 in   Overcast
9:00 AM 57.0 °F 57.0 °F 100% 29.85 in 1.8 mi Calm Calm - 0.02 in Rain Light Rain
9:10 AM 57.9 °F 57.9 °F 100% 29.85 in 3.0 mi Calm Calm - 0.03 in Rain Light Rain
9:54 AM 61.0 °F 59.0 °F 93% 29.84 in 10.0 mi Calm Calm - 0.03 in   Overcast
10:42 AM 64.9 °F 61.0 °F 87% 29.83 in 10.0 mi Calm Calm - N/A   Mostly Cloudy
10:54 AM 66.0 °F 62.1 °F 87% 29.82 in 10.0 mi Calm Calm - N/A   Mostly Cloudy
11:54 AM 73.0 °F 59.0 °F 61% 29.81 in 10.0 mi West 10.4 mph 21.9 mph N/A   Clear
12:54 PM 78.1 °F 55.0 °F 45% 29.79 in 10.0 mi West 13.8 mph 18.4 mph N/A   Scattered Clouds
1:54 PM 78.1 °F 53.1 °F 42% 29.77 in 10.0 mi West 10.4 mph 21.9 mph N/A   Mostly Cloudy
2:54 PM 78.1 °F 51.1 °F 39% 29.75 in 10.0 mi WSW 8.1 mph 18.4 mph N/A   Scattered Clouds
3:54 PM 79.0 °F 48.9 °F 35% 29.73 in 10.0 mi WSW 12.7 mph 20.7 mph N/A   Clear
4:54 PM 78.1 °F 51.1 °F 39% 29.72 in 10.0 mi Variable 6.9 mph - N/A   Mostly Cloudy
5:54 PM 78.1 °F 48.0 °F 35% 29.71 in 10.0 mi WSW 11.5 mph 26.5 mph N/A   Clear
6:54 PM 77.0 °F 45.0 °F 32% 29.72 in 10.0 mi West 15.0 mph 23.0 mph N/A   Clear
7:54 PM 75.0 °F 42.1 °F 31% 29.74 in 10.0 mi West 9.2 mph - N/A   Clear
8:54 PM 70.0 °F 44.1 °F 39% 29.76 in 10.0 mi Variable 3.5 mph - N/A   Clear
9:54 PM 71.1 °F 45.0 °F 39% 29.79 in 10.0 mi West 13.8 mph 20.7 mph N/A   Partly Cloudy
10:54 PM 69.1 °F 43.0 °F 39% 29.80 in 10.0 mi WSW 8.1 mph - N/A   Mostly Cloudy
11:54 PM 68.0 °F 37.9 °F 33% 29.81 in 10.0 mi West 12.7 mph 18.4 mph N/A   Mostly Cloudy